Weather History for KBUU - June, 2013

Change the Weather History Date:

Sunday, June 9, 2013

  Actual Average (KENW) Record (KENW)
Temperature  
Mean Temperature 64 °F -  
Max Temperature 79 °F 69 °F 92 °F (1952)
Min Temperature 50 °F 53 °F 38 °F (1969)
Growing Degree Days 14 (Base 50)    
Moisture  
Dew Point 54 °F    
Average Humidity 68    
Maximum Humidity 94    
Minimum Humidity 40    
Precipitation  
Precipitation 0.00 in - - ()
Sea Level Pressure  
Sea Level Pressure 29.93 in    
Wind  
Wind Speed 4 mph (ESE)    
Max Wind Speed 16 mph    
Max Gust Speed 22 mph    
Visibility 10 miles    
Events      
Averages and records for this station are not official NWS values.
T = Trace of Precipitation, MM = Missing Value Source: NWS Daily Summary

Daily Weather History Graph

Daily Weather History Graph

Search for Another Location

Airport or City:

Trip Planner

Search our weather history database for the weather conditions in past years. The results will help you decide how hot, cold, wet, or windy it might be!

Date:

Astronomy

Jun. 09, 2013 Rise Set
Actual Time 5:15 AM CDT 8:30 PM CDT
Civil Twilight 4:40 AM CDT 9:05 PM CDT
Nautical Twilight 3:55 AM CDT 9:50 PM CDT
Astronomical Twilight 3:00 AM CDT 10:44 PM CDT
Moon 6:12 AM CDT (6/9) 9:15 PM CDT (6/9)
Length of Visible Light 16h 24m
Length of Day
15h 15m
New Moon, 1% of the Moon is Illuminated
Jun 9
New Moon
Jun 16
First Quarter
Jun 23
Full
Jun 29
Last Quarter
Jul 8
New

Hourly Weather History & Observations

Time (CDT) Temp. Dew Point Humidity Pressure Visibility Wind Dir Wind Speed Gust Speed Precip Events Conditions
12:15 AM 53.6 °F 48.4 °F 82% 30.03 in 10.0 mi Calm Calm - N/A   Clear
12:35 AM 52.7 °F 47.8 °F 84% 30.03 in 10.0 mi East 3.5 mph - N/A   Clear
12:55 AM 51.8 °F 48.0 °F 87% 30.03 in 10.0 mi Calm Calm - N/A   Clear
1:15 AM 51.3 °F 47.8 °F 88% 30.03 in 10.0 mi Calm Calm - N/A   Clear
1:35 AM 50.2 °F 47.7 °F 91% 30.02 in 10.0 mi Calm Calm - N/A   Clear
1:55 AM 50.4 °F 48.2 °F 92% 30.02 in 10.0 mi Calm Calm - N/A   Mostly Cloudy
2:15 AM 50.9 °F 48.6 °F 92% 30.01 in 10.0 mi Calm Calm - N/A   Mostly Cloudy
2:35 AM 50.9 °F 48.7 °F 92% 30.01 in 10.0 mi Calm Calm - N/A   Mostly Cloudy
2:55 AM 50.5 °F 48.6 °F 93% 30.01 in 10.0 mi Calm Calm - N/A   Scattered Clouds
3:15 AM 50.5 °F 48.6 °F 93% 30.00 in 10.0 mi Calm Calm - N/A   Scattered Clouds
3:35 AM 50.5 °F 48.7 °F 94% 30.00 in 10.0 mi Calm Calm - N/A   Scattered Clouds
3:55 AM 51.1 °F 48.9 °F 92% 30.00 in 10.0 mi Calm Calm - N/A   Scattered Clouds
4:15 AM 51.4 °F 49.1 °F 92% 29.99 in 10.0 mi Calm Calm - N/A   Mostly Cloudy
4:35 AM 51.3 °F 49.1 °F 92% 30.00 in 10.0 mi Calm Calm - N/A   Scattered Clouds
4:55 AM 51.6 °F 49.1 °F 91% 30.00 in 10.0 mi Calm Calm - N/A   Scattered Clouds
5:15 AM 52.2 °F 49.1 °F 89% 30.00 in 10.0 mi Calm Calm - N/A   Scattered Clouds
5:35 AM 52.5 °F 49.5 °F 89% 30.00 in 10.0 mi ENE 3.5 mph - N/A   Mostly Cloudy
5:55 AM 53.1 °F 48.9 °F 86% 30.00 in 10.0 mi Calm Calm - N/A   Mostly Cloudy
6:15 AM 53.2 °F 49.5 °F 87% 30.00 in 10.0 mi Calm Calm - N/A   Scattered Clouds
6:35 AM 54.0 °F 49.1 °F 84% 30.00 in 10.0 mi Calm Calm - N/A   Mostly Cloudy
6:55 AM 54.5 °F 48.9 °F 81% 29.99 in 10.0 mi Calm Calm - N/A   Mostly Cloudy
7:15 AM 56.1 °F 48.9 °F 77% 29.99 in 10.0 mi Calm Calm - N/A   Clear
7:35 AM 58.3 °F 48.9 °F 71% 29.99 in 10.0 mi East 3.5 mph - N/A   Clear
7:55 AM 60.1 °F 50.0 °F 69% 29.98 in 10.0 mi East 3.5 mph - N/A   Clear
8:15 AM 61.7 °F 50.7 °F 67% 29.98 in 10.0 mi East 3.5 mph - N/A   Clear
8:35 AM 62.6 °F 51.3 °F 66% 29.98 in 10.0 mi Calm Calm - N/A   Clear
8:55 AM 65.1 °F 52.9 °F 65% 29.98 in 10.0 mi South 3.5 mph - N/A   Clear
9:15 AM 67.5 °F 54.1 °F 62% 29.97 in 10.0 mi SE 4.6 mph - N/A   Scattered Clouds
9:35 AM 69.4 °F 55.4 °F 61% 29.97 in 10.0 mi SSE 4.6 mph - N/A   Clear
9:55 AM 72.3 °F 55.9 °F 56% 29.96 in 10.0 mi SE 8.1 mph - N/A   Clear
10:15 AM 74.1 °F 56.3 °F 54% 29.95 in 10.0 mi SSE 8.1 mph - N/A   Clear
10:35 AM 75.0 °F 56.5 °F 52% 29.95 in 10.0 mi SSE 8.1 mph - N/A   Clear
10:55 AM 76.1 °F 55.8 °F 49% 29.94 in 10.0 mi SE 11.5 mph - N/A   Clear
11:15 AM 77.2 °F 55.9 °F 48% 29.94 in 10.0 mi SE 11.5 mph 16.1 mph N/A   Scattered Clouds
11:35 AM 76.3 °F 56.1 °F 50% 29.94 in 10.0 mi SE 11.5 mph 21.9 mph N/A   Scattered Clouds
11:55 AM 77.7 °F 53.8 °F 43% 29.93 in 10.0 mi SSE 13.8 mph 19.6 mph N/A   Scattered Clouds
12:15 PM 78.8 °F 52.7 °F 40% 29.93 in 10.0 mi SE 13.8 mph 19.6 mph N/A   Clear
12:35 PM 79.2 °F 53.6 °F 41% 29.92 in 10.0 mi SE 13.8 mph 19.6 mph N/A   Scattered Clouds
12:55 PM 78.1 °F 53.6 °F 43% 29.91 in 10.0 mi South 11.5 mph - N/A   Scattered Clouds
1:15 PM 78.4 °F 54.3 °F 43% 29.91 in 10.0 mi ESE 8.1 mph 16.1 mph N/A   Scattered Clouds
1:35 PM 77.5 °F 57.6 °F 50% 29.90 in 10.0 mi SSE 8.1 mph - N/A   Mostly Cloudy
1:55 PM 77.0 °F 56.3 °F 49% 29.90 in 10.0 mi SE 12.7 mph 19.6 mph N/A   Mostly Cloudy
2:15 PM 77.0 °F 57.9 °F 52% 29.90 in 10.0 mi ESE 16.1 mph 21.9 mph N/A   Scattered Clouds
2:35 PM 76.1 °F 57.7 °F 53% 29.89 in 10.0 mi ESE 11.5 mph 19.6 mph N/A   Scattered Clouds
2:55 PM 77.9 °F 58.3 °F 51% 29.88 in 10.0 mi SE 16.1 mph 21.9 mph N/A   Clear
3:15 PM 77.0 °F 59.0 °F 54% 29.88 in 10.0 mi ESE 12.7 mph 20.7 mph N/A   Clear
3:35 PM 76.6 °F 57.7 °F 52% 29.87 in 10.0 mi ESE 12.7 mph 20.7 mph N/A   Clear
3:55 PM 75.6 °F 57.0 °F 52% 29.87 in 10.0 mi ESE 13.8 mph 20.7 mph N/A   Scattered Clouds
4:15 PM 75.2 °F 56.8 °F 53% 29.86 in 10.0 mi ESE 13.8 mph 18.4 mph N/A   Scattered Clouds
4:35 PM 73.6 °F 56.7 °F 55% 29.87 in 10.0 mi ESE 13.8 mph 19.6 mph N/A   Scattered Clouds
4:55 PM 72.5 °F 57.0 °F 58% 29.86 in 10.0 mi ESE 13.8 mph 18.4 mph N/A   Mostly Cloudy
5:15 PM 72.3 °F 57.2 °F 59% 29.86 in 10.0 mi ESE 11.5 mph 17.3 mph N/A   Mostly Cloudy
5:35 PM 73.2 °F 57.7 °F 58% 29.86 in 10.0 mi ESE 10.4 mph - N/A   Scattered Clouds
5:55 PM 72.9 °F 57.0 °F 57% 29.85 in 10.0 mi ESE 11.5 mph 17.3 mph N/A   Mostly Cloudy
6:15 PM 73.4 °F 57.2 °F 57% 29.85 in 10.0 mi ESE 11.5 mph 18.4 mph N/A   Scattered Clouds
6:35 PM 72.5 °F 56.5 °F 57% 29.85 in 10.0 mi ESE 8.1 mph - N/A   Clear
6:55 PM 71.8 °F 57.2 °F 60% 29.85 in 10.0 mi ESE 6.9 mph - N/A   Clear
7:15 PM 71.2 °F 57.2 °F 61% 29.85 in 10.0 mi East 9.2 mph - N/A   Scattered Clouds
7:35 PM 70.9 °F 56.8 °F 61% 29.84 in 10.0 mi ESE 10.4 mph - N/A   Scattered Clouds
7:55 PM 70.5 °F 56.7 °F 61% 29.84 in 10.0 mi ESE 6.9 mph - N/A   Clear
8:15 PM 69.8 °F 56.8 °F 63% 29.83 in 10.0 mi East 10.4 mph - N/A   Clear
8:35 PM 68.9 °F 56.5 °F 65% 29.83 in 10.0 mi East 9.2 mph - N/A   Clear
8:55 PM 68.4 °F 55.6 °F 64% 29.83 in 10.0 mi ESE 5.8 mph - N/A   Scattered Clouds
9:15 PM 67.1 °F 55.6 °F 66% 29.83 in 10.0 mi East 6.9 mph - N/A   Scattered Clouds
9:35 PM 66.2 °F 55.2 °F 68% 29.84 in 10.0 mi East 9.2 mph - N/A   Scattered Clouds
9:55 PM 65.5 °F 55.4 °F 70% 29.84 in 10.0 mi East 8.1 mph - N/A   Scattered Clouds
10:15 PM 65.5 °F 55.0 °F 69% 29.85 in 10.0 mi Calm Calm - N/A   Mostly Cloudy
10:35 PM 65.5 °F 55.2 °F 69% 29.85 in 10.0 mi ESE 3.5 mph - N/A   Mostly Cloudy
10:55 PM 65.1 °F 55.4 °F 71% 29.85 in 10.0 mi Calm Calm - N/A   Overcast
11:15 PM 64.4 °F 55.9 °F 74% 29.84 in 10.0 mi NE 4.6 mph - N/A   Mostly Cloudy
11:35 PM 63.3 °F 56.3 °F 78% 29.84 in 10.0 mi ENE 6.9 mph - N/A   Mostly Cloudy
11:55 PM 63.5 °F 56.3 °F 77% 29.83 in 10.0 mi ENE 6.9 mph - N/A   Mostly Cloudy